Theta_e
307 303 300 302 309 310 313 316 315 315 319 320 327 339 340 346 352 357 364 361 363 365 365 366 365 363 361 360 360 362 362 362
305 301 306 307 310 312 311 313 314 314 311 321 337 336 334 344 347 347 360 361 362 364 365 365 364 363 361 360 361 362 362 362
302 302 306 309 312 312 310 311 312 312 309 314 327 328 332 339 347 347 358 360 360 363 364 365 364 362 361 361 361 361 362 362
299 303 308 311 313 311 309 311 312 311 311 313 327 327 331 342 345 350 357 359 358 363 363 363 363 362 361 361 361 361 361 361
302 302 305 309 313 310 310 310 310 314 309 315 319 323 324 335 345 349 358 359 358 356 361 363 362 361 361 361 361 361 360 359
303 302 303 309 311 312 310 309 316 315 309 311 318 322 322 324 344 347 356 358 354 354 354 357 359 361 361 361 360 360 360 358
302 303 304 310 307 311 312 309 311 312 312 316 318 319 319 320 333 343 351 357 354 348 349 351 354 359 360 361 360 360 359 358
307 307 305 307 307 308 307 307 308 310 313 315 315 316 316 317 319 337 346 355 354 350 346 345 348 357 357 356 356 354 353 353
307 308 308 307 307 309 307 305 308 308 312 314 315 316 315 316 318 320 345 354 355 354 350 343 343 353 351 352 352 351 351 351
308 309 308 306 309 307 308 308 312 312 313 314 313 313 313 314 316 319 335 352 357 358 353 350 348 348 345 347 348 348 349 352
310 308 307 308 305 305 306 310 312 312 313 313 314 316 317 318 321 325 346 348 354 360 355 353 353 346 343 342 344 346 349 352
307 307 307 305 305 306 307 311 310 311 311 312 314 316 320 325 325 332 340 354 355 359 355 358 355 349 346 347 343 344 347 351
307 308 306 307 302 303 309 311 309 310 311 312 316 317 318 322 330 333 338 344 356 359 362 359 354 352 349 348 345 344 345 351
306 307 307 306 299 307 311 309 308 309 311 311 313 318 320 322 330 335 341 342 354 354 357 359 356 352 350 349 351 350 349 350
303 308 306 306 301 307 311 310 309 310 311 311 312 317 322 324 324 334 337 339 345 358 356 357 355 355 353 355 353 352 355 348
298 304 305 303 302 307 309 309 310 310 311 312 313 315 320 328 328 330 336 337 342 345 357 359 357 353 353 349 350 349 348 346
302 305 303 302 302 305 308 308 308 309 311 312 314 317 320 325 327 332 335 340 345 342 353 357 356 348 345 345 347 349 348 348
302 305 303 302 301 305 308 309 310 310 311 312 314 315 318 322 329 333 334 339 340 344 345 356 356 353 349 348 347 348 347 347
298 302 303 301 299 303 307 309 310 310 311 312 312 313 316 317 323 330 332 332 336 339 345 353 357 355 351 348 348 346 345 344
300 298 292 302 291 300 305 306 308 309 309 309 311 313 315 320 323 323 324 332 333 340 343 351 356 353 350 342 342 342 345 344
Wind_Speed
6 12 15 16 12 13 9 15 4 3 3 8 8 16 8 8 7 10 19 17 16 12 12 14 13 16 16 16 16 15 13 11
9 17 17 21 15 8 10 9 3 4 7 5 9 7 8 6 8 5 20 19 21 17 13 13 15 15 15 14 14 16 14 13
13 16 19 21 19 10 6 9 7 7 4 8 13 10 8 4 2 6 18 19 17 22 15 15 15 14 17 16 15 14 15 14
13 18 20 17 1 3 3 12 8 1 6 9 9 10 7 8 7 6 19 18 15 19 17 15 16 16 15 16 15 14 15 15
17 17 20 8 6 2 6 7 13 14 8 3 13 11 8 5 10 3 20 19 15 15 15 14 16 17 17 17 16 12 12 14
16 15 18 5 14 10 5 9 16 14 3 5 10 9 9 10 2 11 14 18 16 14 14 13 12 16 16 17 18 15 13 13
17 13 19 6 5 2 6 5 14 14 16 17 18 13 9 9 4 8 11 16 17 17 14 14 13 12 15 17 19 16 13 13
11 10 14 17 12 8 9 10 11 15 13 13 16 13 8 9 11 9 6 17 17 18 16 14 13 13 11 12 9 10 11 11
18 10 12 15 15 14 14 16 15 14 12 11 12 13 10 10 12 15 13 1 12 14 17 16 13 11 7 7 7 8 11 10
14 10 13 14 15 17 17 17 17 17 14 12 10 12 13 12 13 16 13 13 6 1 12 11 10 10 9 9 9 8 10 12
11 13 13 15 17 18 19 18 17 17 15 12 12 12 11 8 11 10 3 4 16 10 4 10 9 10 9 9 10 11 10 12
17 17 17 14 15 15 18 16 15 11 12 13 12 12 9 4 8 8 4 6 5 11 7 8 6 11 8 7 9 10 10 11
20 16 11 9 15 18 22 15 5 9 13 11 11 10 10 7 5 5 5 5 7 6 9 10 3 10 8 9 8 7 9 12
1 8 12 15 16 14 12 2 7 11 12 11 11 10 10 9 6 5 3 5 4 7 10 12 10 6 8 9 7 7 7 9
17 18 17 13 17 16 17 15 13 12 14 16 15 12 10 9 8 6 6 4 6 10 11 14 14 8 8 9 7 7 5 8
19 18 19 20 22 18 19 19 19 18 16 15 16 12 11 7 7 8 7 9 8 7 13 13 12 11 10 10 10 9 9 9
19 19 21 19 18 19 18 19 20 18 15 13 14 12 9 9 9 7 7 7 8 9 10 11 10 12 11 9 12 11 11 15
19 17 18 20 22 22 22 20 18 16 14 14 13 11 10 10 8 7 8 8 8 8 11 11 10 10 10 12 11 12 11 13
19 21 19 22 24 23 16 4 11 11 10 9 10 10 9 10 8 6 9 11 11 11 12 12 15 10 11 10 7 6 12 11
20 18 16 20 17 21 22 15 17 13 9 8 10 10 9 7 7 10 11 12 13 12 14 14 14 12 16 12 11 8 10 12
Wind_Direction
223 231 250 268 318 359 72 83 55 337 128 321 48 54 59 34 80 102 127 143 124 132 138 140 146 145 144 145 145 143 143 140
260 264 240 239 280 1 337 74 48 322 297 98 82 86 73 77 348 256 137 141 136 133 138 140 141 144 138 143 146 141 144 142
257 252 262 282 292 70 328 313 317 151 284 336 110 106 58 93 94 276 131 126 139 134 141 142 141 145 145 144 146 147 146 141
257 253 245 246 212 89 220 287 295 228 179 262 155 103 49 48 74 336 121 132 140 134 139 144 144 146 147 144 143 154 150 145
269 284 294 323 70 20 11 288 283 350 247 57 53 55 13 342 128 261 132 125 140 140 141 145 146 149 150 143 140 151 150 147
275 276 272 12 54 33 329 284 323 347 294 236 43 30 342 290 85 154 139 132 141 146 159 155 161 152 152 148 145 148 152 154
262 320 331 59 43 75 8 313 303 306 301 296 320 326 301 291 191 277 160 148 145 158 166 167 165 162 151 157 148 150 156 163
18 344 322 332 347 332 297 286 270 274 273 263 278 280 293 294 291 188 135 163 154 164 164 177 160 152 173 171 167 166 171 176
316 342 324 318 310 299 287 270 260 275 280 298 328 319 303 291 291 290 148 223 174 171 159 176 162 153 177 172 177 182 183 179
306 312 306 294 294 284 281 282 287 284 288 284 282 279 285 276 271 255 216 143 78 234 157 192 143 156 174 174 183 187 185 180
312 292 281 277 273 279 277 275 274 273 265 266 271 268 271 278 290 304 95 296 144 195 187 188 149 159 181 183 182 184 185 181
290 281 275 281 280 279 277 270 258 252 261 266 258 265 259 231 293 329 350 198 227 152 197 265 161 165 184 191 184 184 179 177
264 245 254 292 279 268 270 253 284 300 279 254 254 266 283 275 222 263 285 297 191 169 187 232 245 177 185 189 185 185 175 168
19 154 231 219 279 292 285 337 257 254 251 254 267 275 276 277 259 246 213 240 256 203 195 214 235 189 197 182 182 187 172 164
317 331 316 281 271 271 269 278 251 238 242 260 262 251 239 243 243 230 214 245 245 204 210 203 221 236 207 189 193 184 148 155
305 303 297 289 281 286 284 274 263 270 268 259 257 248 256 240 244 219 215 201 212 247 206 206 205 216 224 203 195 190 175 163
290 282 278 283 292 291 289 279 269 269 267 262 265 263 256 240 232 226 212 202 202 219 225 200 202 204 223 217 196 194 183 164
298 317 321 308 292 282 267 256 259 269 272 269 266 265 250 257 216 205 208 199 212 228 234 206 212 208 198 220 225 191 181 172
320 313 295 282 272 274 275 257 207 235 260 257 262 283 289 285 283 239 215 213 202 218 231 231 210 212 203 209 216 231 176 178
303 300 296 305 296 288 271 254 203 226 203 256 295 252 247 248 272 245 245 214 205 212 231 231 206 220 208 200 207 215 220 170